Location: Lake Almanor
(40.2485°N, 121.1442°W)
Time: 08:01:25
(UTC-08:00)

STARLINK-1109 - Pass Details

Date: 28 January 2020
Orbit: 349 x 351 km, 53.0° (Epoch: 18 February)

Event Time Altitude Azimuth Distance (km) Brightness Sun altitude
Rises 18:30:14 0° 319° (NW) 2,166 7.1 -13.9°
Reaches altitude 10° 18:32:49 10° 344° (NNW) 1,321 5.6 -14.4°
Enters shadow 18:34:20 15° 15° (NNE) 1,068 4.8 -14.7°
